SCP
-0 -0 -0 -0 -0 -0 -0 -0 -0 -0 -0 -0 -0 -0 -0 -0 -0 -0 -0 0 -0 -0 -0 -0 -0 -0 0 0 0 0 0 -0 0 -0 0 0 0 0 0 0 0 0 0 0 -0
-0 -0 -0 -0 -0 -0 -0 -0 -0 -0 -0 -0 0 0 0 -0 -0 -0 -0 -0 -0 -0 -0 -0 -0 -0 -0 -0 0 -0 -0 0 0 0 0 0 0 0 0 0 0 0 0 0 0
-0 -0 -0 -0 -0 -0 -0 -0 -0 -0 -0 -0 -0 -0 -0 0 -0 -0 -0 -0 -0 -0 -0 -0 -0 -0 -0 0 -0 0 0 0 0 0 0 0 0 0 0 -0 0 0 0 0 0
-0 -0 -0 -0 -0 -0 -0 -0 -0 -0 -0 -0 0 -0 -0 -0 0 -0 -0 -0 -0 -0 -0 -0 -0 -0 -0 -0 -0 -0 -0 0 0 0 0 0 0 0 0 -0 0 0 0 0 0
-0 -0 -0 -0 -0 -0 -0 -0 -0 -0 -0 -0 -0 0 -0 -0 0 -0 -0 -0 -0 -0 -0 -0 -0 -0 -0 0 0 0 -0 0 0 0 0 0 0 0 0 0 0 0 0 0 0
-0 -0 -0 -0 -0 -0 -0 -0 -0 -0 -0 -0 -0 -0 -0 -0 -0 -0 -0 -0 -0 -0 -0 -0 -0 -0 0 0 0 0 0 0 0 0 0 0 0 0 0 0 0 0 0 0 0
-0 -0 -0 -0 -0 -0 -0 -0 -0 -0 -0 0 -0 -0 -0 -0 0 -0 -0 -0 -0 -0 -0 0 -0 0 0 0 0 0 0 0 0 0 0 0 -0 -0 -0 0 0 0 0 0 0
-0 -0 -0 -0 -0 -0 -0 -0 -0 -0 -0 -0 -0 -0 -0 0 0 -0 -0 -0 0 -0 -0 0 -0 -0 0 0 0 0 0 0 0 0 0 0 0 0 0 -0 0 0 0 0 0
-0 -0 -0 -0 -0 -0 -0 -0 0 0 0 0 0 0 0 0 0 0 0 0 0 0 0 0 0 0 0 0 0 0 0 0 -0 0 0 0 0 -0 0 0 0 0 0 0 0
-0 -0 -0 -0 -0 -0 0 0 0 0 0 0 -0 0 0 0 0 0 0 0 0 0 0 0 0 0 0 0 0 0 0 0 0 0 0 0 0 -0 0 0 0 0 0 0 0
-0 -0 -0 -0 -0 0 -0 0 0 0 0 -0 0 0 0 0 0 0 0 0 0 0 0 0 0 0 0 0 0 0 0 0 0 0 0 0 0 -0 0 0 0 0 0 0 0
-0 -0 -0 -0 -0 0 0 0 0 0 0 0 0 0 0 0 0 0 0 0 0 0 0 0 0 -0 -0 0 0 0 0 0 0 0 0 0 -0 0 0 0 0 0 0 0 0
-0 -0 -0 -0 0 -0 0 0 0 0 0 0 0 0 0 0 0 0 0 0 0 0 0 0 0 0 0 0 0 0 0 0 0 0 0 0 -0 0 0 0 0 0 0 0 0
-0 -0 -0 -0 -0 0 0 0 -0 0 0 0 0 0 0 0 0 -0 0 0 -0 0 0 0 0 0 0 0 0 0 0 0 0 0 0 0 0 0 0 0 0 0 0 0 0
-0 -0 -0 -0 -0 0 -0 -0 -0 -0 0 0 0 0 0 0 0 0 0 0 -0 0 0 0 0 0 0 0 0 0 0 0 0 0 0 -0 0 -0 0 0 0 0 0 0 0
-0 -0 -0 0 0 0 -0 -0 -0 0 0 0 0 0 0 0 0 0 0 0 0 0 -0 0 -0 0 0 0 0 0 0 0 0 0 0 0 -0 0 0 0 0 0 0 0 0
-0 -0 -0 -0 0 -0 -0 -0 0 0 0 0 0 0 0 0 0 0 0 0 0 0 0 0 0 0 0 0 0 0 0 0 0 0 0 0 0 0 0 0 0 0 0 0 0
-0 -0 0 0 0 -0 -0 0 0 0 0 0 0 0 0 0 0 0 0 0 0 0 0 0 0 0 0 0 0 0 0 0 0 0 0 0 0 0 0 0 0 0 0 0 0
-0 0 0 0 0 -0 0 0 0 0 0 0 0 0 0 0 0 0 0 0 0 0 0 0 0 0 0 0 0 -0 0 0 0 0 0 0 0 0 0 0 0 0 0 0 0
0 0 0 0 0 0 0 0 0 0 0 0 0 0 0 0 0 0 0 0 0 0 0 0 0 0 0 0 0 0 0 0 0 0 0 0 0 0 0 0 0 0 0 0 0
-0 -0 0 0 0 0 0 0 0 0 0 0 0 0 0 0 0 0 0 0 0 0 0 0 0 0 0 0 0 0 1 0 0 0 0 0 0 0 0 0 0 0 0 0 0
-0 0 0 0 0 0 0 0 0 0 0 0 0 0 0 0 0 0 0 0 0 0 0 0 0 0 0 0 0 0 0 0 0 1 0 0 0 0 0 0 0 0 0 0 0
-0 -0 0 0 0 0 0 0 0 0 0 0 0 0 0 0 0 0 0 0 0 0 0 0 0 0 0 0 0 0 0 0 0 0 0 0 0 0 0 0 0 0 0 0 0
-0 0 0 0 0 0 0 0 0 0 0 0 0 0 0 0 0 0 0 0 0 0 0 0 0 0 0 0 0 0 0 0 0 0 0 -0 0 0 -0 -0 -0 0 0 0 0
0 0 0 0 0 0 0 0 0 0 0 0 0 0 0 0 0 0 0 0 0 0 0 0 0 0 0 0 0 0 0 0 0 0 0 0 0 -0 0 0 0 0 0 0 0
0 0 0 0 0 0 0 0 0 0 0 0 0 0 0 0 0 0 0 0 0 0 0 0 0 0 0 0 0 0 0 0 0 0 0 0 0 0 0 0 0 0 0 0 0
0 0 0 0 0 0 0 0 0 0 0 0 0 0 0 0 0 0 0 0 0 0 0 0 0 0 0 0 0 0 0 0 0 0 0 0 0 0 0 0 0 0 0 0 0
Wind_Speed_500mb
26 21 18 15 12 10 8 8 7 6 8 9 9 8 9 10 11 11 11 12 21 29 34 22 24 24 23 30 29 22 25 29 34 33 15 10 18 12 12 19 5 19 11 16 27
29 23 19 17 15 13 10 9 8 8 9 11 10 8 8 10 15 24 26 25 21 32 28 29 28 27 33 32 27 31 24 39 21 14 9 1 13 10 14 32 18 17 12 17 22
31 27 21 18 16 15 12 12 12 10 10 12 11 8 6 9 11 12 29 23 21 23 22 24 22 27 35 27 34 32 34 25 6 12 14 21 18 19 26 33 34 30 33 21 19
31 28 24 19 17 17 14 12 12 12 10 11 11 8 6 7 4 12 19 21 21 27 19 25 27 33 32 28 35 31 33 33 30 12 24 33 32 12 32 34 12 21 23 23 22
30 28 26 21 16 16 13 13 12 12 10 9 10 8 5 12 6 12 17 21 20 23 27 26 28 30 26 22 25 28 38 24 33 25 33 31 28 32 25 42 5 3 10 21 21
34 29 26 23 18 15 13 11 8 9 8 6 8 8 7 24 4 14 19 22 23 25 26 25 19 21 30 19 22 17 37 24 33 37 37 33 39 39 28 35 14 15 24 24 20
38 31 27 24 19 14 9 7 1 5 5 5 7 8 16 16 8 16 30 27 23 26 23 20 14 17 13 20 25 22 25 29 35 36 36 32 38 40 37 33 31 29 26 22 28
41 35 27 22 17 11 7 5 2 3 5 6 7 5 15 13 15 23 28 26 24 26 23 20 19 25 24 21 15 28 31 32 36 38 39 30 36 42 39 36 29 34 29 26 23
43 39 29 21 14 5 4 4 2 2 3 5 3 11 14 7 21 26 31 30 26 27 23 16 20 30 27 25 27 33 27 37 34 26 28 33 38 37 53 46 28 37 34 30 27
45 39 30 22 11 3 3 4 4 1 5 6 13 14 19 6 18 27 31 29 29 29 30 27 28 26 27 27 28 29 33 28 32 22 30 34 39 36 21 20 29 40 40 33 27
47 38 31 21 10 9 4 10 3 3 18 23 4 21 6 10 13 17 33 33 32 34 33 38 29 32 35 35 31 28 32 30 20 31 23 37 35 41 18 21 26 19 23 26 9
50 41 31 17 14 18 16 5 11 12 19 21 21 22 24 17 17 22 31 38 41 35 40 35 32 35 36 27 19 28 33 34 32 27 23 32 37 30 15 20 13 14 14 17 20
49 42 31 19 17 15 10 11 15 15 15 11 5 6 3 24 32 26 33 45 33 36 39 39 37 20 19 30 30 34 35 33 34 27 27 32 42 24 19 18 15 13 18 16 16
46 39 30 10 10 11 3 21 17 9 11 20 18 8 9 9 16 27 36 42 42 36 38 37 35 38 25 32 31 35 37 33 36 28 27 41 35 43 39 35 30 31 28 24 23
47 32 27 16 8 11 19 20 10 5 10 10 14 4 6 16 3 15 32 43 40 37 28 36 42 26 39 33 34 36 35 35 28 33 36 46 34 34 47 38 32 30 28 23 18
45 34 23 15 8 17 21 14 3 13 5 14 7 4 14 15 9 6 20 37 31 36 43 40 48 32 31 33 29 27 38 40 29 31 35 43 41 37 39 46 41 30 24 24 22
47 34 20 15 17 24 19 9 13 13 7 9 2 6 11 7 14 15 24 28 29 30 33 41 45 44 38 39 32 25 33 24 32 31 37 42 42 37 2 49 43 34 27 23 21
52 31 18 7 25 21 13 18 14 7 3 7 7 15 22 5 22 15 22 25 14 24 29 34 32 19 23 36 39 40 37 32 45 33 37 14 29 9 27 41 47 37 31 25 18
55 24 9 11 24 18 22 16 12 10 11 11 18 23 25 14 16 15 23 28 12 6 26 27 38 22 15 28 26 44 38 37 51 54 40 29 30 13 17 23 31 36 30 22 18
56 25 7 15 24 17 19 23 7 2 9 14 24 8 21 12 14 23 20 12 8 12 15 5 24 12 14 25 19 27 38 27 27 40 50 46 39 27 49 40 33 30 28 18 11
34 22 5 22 21 22 18 10 4 3 8 11 21 23 19 23 20 24 28 13 3 10 11 28 13 31 18 11 17 13 16 17 22 8 13 26 21 31 17 29 27 27 20 13 3
24 14 26 25 24 9 14 9 8 18 13 18 15 27 26 24 21 27 22 9 6 9 19 11 11 20 29 15 17 10 13 9 9 16 19 14 4 30 20 4 19 11 13 6 2
31 25 13 25 10 9 6 18 13 20 20 13 18 19 21 21 18 25 16 13 5 10 12 3 15 21 28 15 11 17 12 17 9 3 22 17 8 21 40 18 3 13 7 4 1
20 10 12 14 3 15 18 23 26 18 22 29 26 23 21 26 23 16 18 15 12 5 5 3 18 24 23 28 7 12 11 12 23 11 21 21 42 11 18 30 40 21 9 11 11
10 9 8 12 18 23 25 26 31 29 21 15 21 31 30 29 30 29 27 18 17 14 12 9 23 27 29 28 28 31 27 28 32 34 32 36 28 25 24 34 20 13 14 15 17
16 14 19 39 38 25 19 22 29 26 11 29 33 34 29 32 30 29 28 24 23 32 21 19 19 20 25 30 36 38 31 37 40 38 39 37 38 33 24 26 17 17 11 15 20
17 16 18 22 28 18 20 23 15 17 24 37 27 17 25 23 28 18 18 22 15 16 19 22 20 21 25 24 23 27 34 38 37 35 31 32 26 5 5 12 12 13 19 23 29
Wind_Direction_500mb
16 9 2 352 338 323 310 304 302 285 243 231 226 233 247 265 271 263 243 251 217 189 172 185 199 210 214 228 230 241 266 252 249 247 221 154 249 173 281 275 204 184 31 100 157
14 8 0 354 344 328 306 286 278 284 257 232 225 232 251 272 274 247 233 228 203 181 178 189 199 203 213 223 218 234 232 252 295 235 275 106 264 255 237 216 183 173 119 138 156
10 6 358 352 345 332 311 287 268 264 263 240 230 230 256 294 284 173 217 194 174 172 183 202 211 208 226 226 218 226 253 292 306 298 287 287 281 240 257 231 213 196 169 164 172
3 1 357 348 343 338 323 301 274 261 261 244 230 235 259 275 330 167 182 181 178 179 199 205 208 208 232 219 229 242 243 276 272 231 242 252 256 288 248 252 237 173 132 160 181
358 354 351 346 338 339 330 309 280 255 252 237 219 223 251 240 258 199 179 177 179 183 192 194 204 219 233 217 223 235 264 238 248 249 246 248 258 250 235 247 120 84 180 176 185
357 349 345 343 335 337 340 329 285 231 234 221 208 217 240 253 171 190 185 183 181 185 194 205 222 246 287 246 222 240 243 254 242 239 239 239 248 237 245 242 183 221 207 193 198
359 351 342 342 336 337 350 4 60 186 206 192 198 215 253 257 181 188 180 186 186 192 205 217 251 231 278 240 239 265 257 242 246 242 244 232 246 241 243 215 218 212 226 220 191
357 352 344 341 339 338 352 11 84 171 188 189 197 208 268 203 191 190 193 197 204 207 225 233 237 254 259 279 259 246 245 254 229 216 229 231 244 232 222 232 216 233 223 221 218
357 353 347 344 340 342 12 38 0 282 222 197 203 208 239 236 202 197 198 203 204 207 216 229 234 245 235 248 243 227 254 243 258 185 221 208 247 250 209 221 220 236 230 231 221
1 356 352 352 353 40 44 355 328 286 178 189 245 227 222 252 186 201 200 201 201 204 215 224 233 240 235 242 245 250 236 231 251 177 226 227 237 252 173 215 225 243 246 244 232
8 2 359 3 45 64 35 341 251 198 227 258 298 267 171 188 174 196 199 201 201 209 218 207 236 238 241 242 258 300 286 285 268 252 201 239 228 244 161 228 229 234 238 235 165
12 11 11 36 71 62 50 356 30 332 293 265 262 257 246 220 238 204 193 200 207 225 218 239 227 255 267 264 264 260 261 260 258 259 221 247 247 216 157 215 193 196 178 166 167
16 18 22 63 54 47 50 17 335 324 261 157 193 191 166 211 231 215 199 210 213 232 234 232 240 213 272 272 244 249 257 260 258 253 224 244 246 170 169 178 174 157 140 139 144
11 18 27 30 36 9 0 339 334 309 269 141 184 144 189 204 217 227 207 219 237 244 243 251 235 261 229 258 259 246 247 246 269 248 244 211 245 191 188 192 182 162 155 143 141
2 5 11 26 355 357 323 324 309 301 242 124 130 143 191 238 24 179 215 220 240 238 248 254 239 248 256 255 253 259 276 272 238 250 253 248 220 267 180 193 182 163 149 140 126
349 350 0 346 339 327 327 311 301 231 193 143 129 241 211 201 208 149 207 223 242 256 260 249 272 266 257 255 246 271 258 250 254 254 246 241 252 220 199 189 175 160 159 144 128
348 337 339 358 330 322 318 250 244 254 119 147 114 297 291 258 238 260 205 211 229 229 241 249 242 251 238 256 247 227 246 240 236 229 241 246 245 246 239 189 143 159 159 144 132
349 335 322 322 330 321 315 254 260 50 277 77 252 273 258 309 259 255 257 248 220 288 274 284 269 264 292 323 261 250 225 242 251 252 247 314 260 322 86 138 162 159 158 147 129
351 343 296 277 332 318 280 248 280 24 11 307 293 260 261 185 262 227 254 272 51 330 283 278 263 104 50 345 254 272 264 237 264 265 272 257 225 150 170 155 162 166 160 148 134
347 340 254 308 324 303 264 264 297 357 303 269 271 269 280 259 207 269 255 180 209 268 337 312 275 279 318 316 286 335 315 297 270 262 255 251 244 209 183 182 176 168 162 143 145
354 321 351 321 312 257 251 322 339 134 277 251 275 272 266 278 283 272 280 111 134 262 290 296 261 275 259 275 294 314 326 348 305 192 254 283 272 28 150 176 168 170 140 144 141
350 314 339 338 287 222 288 23 2 269 223 258 262 272 276 277 271 265 263 271 98 293 276 23 295 278 276 305 216 238 236 247 291 338 318 270 307 350 149 281 134 135 154 140 15
326 305 311 345 291 288 70 289 256 273 257 252 249 251 277 265 262 253 263 88 264 261 337 189 255 266 265 182 182 247 247 232 218 274 264 278 320 340 2 22 171 219 173 242 311
320 312 341 328 36 334 336 286 273 235 277 266 267 275 258 251 247 262 230 164 228 242 60 314 263 265 275 303 205 233 224 230 204 225 255 239 287 0 261 205 221 232 215 283 327
317 5 353 307 320 329 294 293 286 277 224 252 264 245 250 249 250 237 248 204 193 166 224 245 258 265 268 282 293 292 273 241 222 236 262 276 260 200 232 260 243 350 339 301 302
325 341 325 289 281 285 273 269 285 284 274 269 248 274 262 254 257 268 243 227 231 182 227 205 264 265 275 276 266 263 268 264 259 248 254 261 264 280 273 281 306 291 254 283 297
333 301 283 291 280 260 279 311 295 315 283 259 288 288 276 273 317 302 320 299 290 259 226 226 252 260 266 292 289 275 265 248 251 245 252 256 269 39 129 254 287 295 296 290 293
Wind_Speed_850mb
26 21 18 15 12 10 8 8 7 6 8 9 9 8 9 10 11 11 11 12 21 29 34 22 24 24 23 30 29 22 25 29 34 33 15 10 18 12 12 19 5 19 11 16 27
29 23 19 17 15 13 10 9 8 8 9 11 10 8 8 10 15 24 26 25 21 32 28 29 28 27 33 32 27 31 24 39 21 14 9 1 13 10 14 32 18 17 12 17 22
31 27 21 18 16 15 12 12 12 10 10 12 11 8 6 9 11 12 29 23 21 23 22 24 22 27 35 27 34 32 34 25 6 12 14 21 18 19 26 33 34 30 33 21 19
31 28 24 19 17 17 14 12 12 12 10 11 11 8 6 7 4 12 19 21 21 27 19 25 27 33 32 28 35 31 33 33 30 12 24 33 32 12 32 34 12 21 23 23 22
30 28 26 21 16 16 13 13 12 12 10 9 10 8 5 12 6 12 17 21 20 23 27 26 28 30 26 22 25 28 38 24 33 25 33 31 28 32 25 42 5 3 10 21 21
34 29 26 23 18 15 13 11 8 9 8 6 8 8 7 24 4 14 19 22 23 25 26 25 19 21 30 19 22 17 37 24 33 37 37 33 39 39 28 35 14 15 24 24 20
38 31 27 24 19 14 9 7 1 5 5 5 7 8 16 16 8 16 30 27 23 26 23 20 14 17 13 20 25 22 25 29 35 36 36 32 38 40 37 33 31 29 26 22 28
41 35 27 22 17 11 7 5 2 3 5 6 7 5 15 13 15 23 28 26 24 26 23 20 19 25 24 21 15 28 31 32 36 38 39 30 36 42 39 36 29 34 29 26 23
43 39 29 21 14 5 4 4 2 2 3 5 3 11 14 7 21 26 31 30 26 27 23 16 20 30 27 25 27 33 27 37 34 26 28 33 38 37 53 46 28 37 34 30 27
45 39 30 22 11 3 3 4 4 1 5 6 13 14 19 6 18 27 31 29 29 29 30 27 28 26 27 27 28 29 33 28 32 22 30 34 39 36 21 20 29 40 40 33 27
47 38 31 21 10 9 4 10 3 3 18 23 4 21 6 10 13 17 33 33 32 34 33 38 29 32 35 35 31 28 32 30 20 31 23 37 35 41 18 21 26 19 23 26 9
50 41 31 17 14 18 16 5 11 12 19 21 21 22 24 17 17 22 31 38 41 35 40 35 32 35 36 27 19 28 33 34 32 27 23 32 37 30 15 20 13 14 14 17 20
49 42 31 19 17 15 10 11 15 15 15 11 5 6 3 24 32 26 33 45 33 36 39 39 37 20 19 30 30 34 35 33 34 27 27 32 42 24 19 18 15 13 18 16 16
46 39 30 10 10 11 3 21 17 9 11 20 18 8 9 9 16 27 36 42 42 36 38 37 35 38 25 32 31 35 37 33 36 28 27 41 35 43 39 35 30 31 28 24 23
47 32 27 16 8 11 19 20 10 5 10 10 14 4 6 16 3 15 32 43 40 37 28 36 42 26 39 33 34 36 35 35 28 33 36 46 34 34 47 38 32 30 28 23 18
45 34 23 15 8 17 21 14 3 13 5 14 7 4 14 15 9 6 20 37 31 36 43 40 48 32 31 33 29 27 38 40 29 31 35 43 41 37 39 46 41 30 24 24 22
47 34 20 15 17 24 19 9 13 13 7 9 2 6 11 7 14 15 24 28 29 30 33 41 45 44 38 39 32 25 33 24 32 31 37 42 42 37 2 49 43 34 27 23 21
52 31 18 7 25 21 13 18 14 7 3 7 7 15 22 5 22 15 22 25 14 24 29 34 32 19 23 36 39 40 37 32 45 33 37 14 29 9 27 41 47 37 31 25 18
55 24 9 11 24 18 22 16 12 10 11 11 18 23 25 14 16 15 23 28 12 6 26 27 38 22 15 28 26 44 38 37 51 54 40 29 30 13 17 23 31 36 30 22 18
56 25 7 15 24 17 19 23 7 2 9 14 24 8 21 12 14 23 20 12 8 12 15 5 24 12 14 25 19 27 38 27 27 40 50 46 39 27 49 40 33 30 28 18 11
34 22 5 22 21 22 18 10 4 3 8 11 21 23 19 23 20 24 28 13 3 10 11 28 13 31 18 11 17 13 16 17 22 8 13 26 21 31 17 29 27 27 20 13 3
24 14 26 25 24 9 14 9 8 18 13 18 15 27 26 24 21 27 22 9 6 9 19 11 11 20 29 15 17 10 13 9 9 16 19 14 4 30 20 4 19 11 13 6 2
31 25 13 25 10 9 6 18 13 20 20 13 18 19 21 21 18 25 16 13 5 10 12 3 15 21 28 15 11 17 12 17 9 3 22 17 8 21 40 18 3 13 7 4 1
20 10 12 14 3 15 18 23 26 18 22 29 26 23 21 26 23 16 18 15 12 5 5 3 18 24 23 28 7 12 11 12 23 11 21 21 42 11 18 30 40 21 9 11 11
10 9 8 12 18 23 25 26 31 29 21 15 21 31 30 29 30 29 27 18 17 14 12 9 23 27 29 28 28 31 27 28 32 34 32 36 28 25 24 34 20 13 14 15 17
16 14 19 39 38 25 19 22 29 26 11 29 33 34 29 32 30 29 28 24 23 32 21 19 19 20 25 30 36 38 31 37 40 38 39 37 38 33 24 26 17 17 11 15 20
17 16 18 22 28 18 20 23 15 17 24 37 27 17 25 23 28 18 18 22 15 16 19 22 20 21 25 24 23 27 34 38 37 35 31 32 26 5 5 12 12 13 19 23 29
Wind_Direction_850mb
16 9 2 352 338 323 310 304 302 285 243 231 226 233 247 265 271 263 243 251 217 189 172 185 199 210 214 228 230 241 266 252 249 247 221 154 249 173 281 275 204 184 31 100 157
14 8 0 354 344 328 306 286 278 284 257 232 225 232 251 272 274 247 233 228 203 181 178 189 199 203 213 223 218 234 232 252 295 235 275 106 264 255 237 216 183 173 119 138 156
10 6 358 352 345 332 311 287 268 264 263 240 230 230 256 294 284 173 217 194 174 172 183 202 211 208 226 226 218 226 253 292 306 298 287 287 281 240 257 231 213 196 169 164 172
3 1 357 348 343 338 323 301 274 261 261 244 230 235 259 275 330 167 182 181 178 179 199 205 208 208 232 219 229 242 243 276 272 231 242 252 256 288 248 252 237 173 132 160 181
358 354 351 346 338 339 330 309 280 255 252 237 219 223 251 240 258 199 179 177 179 183 192 194 204 219 233 217 223 235 264 238 248 249 246 248 258 250 235 247 120 84 180 176 185
357 349 345 343 335 337 340 329 285 231 234 221 208 217 240 253 171 190 185 183 181 185 194 205 222 246 287 246 222 240 243 254 242 239 239 239 248 237 245 242 183 221 207 193 198
359 351 342 342 336 337 350 4 60 186 206 192 198 215 253 257 181 188 180 186 186 192 205 217 251 231 278 240 239 265 257 242 246 242 244 232 246 241 243 215 218 212 226 220 191
357 352 344 341 339 338 352 11 84 171 188 189 197 208 268 203 191 190 193 197 204 207 225 233 237 254 259 279 259 246 245 254 229 216 229 231 244 232 222 232 216 233 223 221 218
357 353 347 344 340 342 12 38 0 282 222 197 203 208 239 236 202 197 198 203 204 207 216 229 234 245 235 248 243 227 254 243 258 185 221 208 247 250 209 221 220 236 230 231 221
1 356 352 352 353 40 44 355 328 286 178 189 245 227 222 252 186 201 200 201 201 204 215 224 233 240 235 242 245 250 236 231 251 177 226 227 237 252 173 215 225 243 246 244 232
8 2 359 3 45 64 35 341 251 198 227 258 298 267 171 188 174 196 199 201 201 209 218 207 236 238 241 242 258 300 286 285 268 252 201 239 228 244 161 228 229 234 238 235 165
12 11 11 36 71 62 50 356 30 332 293 265 262 257 246 220 238 204 193 200 207 225 218 239 227 255 267 264 264 260 261 260 258 259 221 247 247 216 157 215 193 196 178 166 167
16 18 22 63 54 47 50 17 335 324 261 157 193 191 166 211 231 215 199 210 213 232 234 232 240 213 272 272 244 249 257 260 258 253 224 244 246 170 169 178 174 157 140 139 144
11 18 27 30 36 9 0 339 334 309 269 141 184 144 189 204 217 227 207 219 237 244 243 251 235 261 229 258 259 246 247 246 269 248 244 211 245 191 188 192 182 162 155 143 141
2 5 11 26 355 357 323 324 309 301 242 124 130 143 191 238 24 179 215 220 240 238 248 254 239 248 256 255 253 259 276 272 238 250 253 248 220 267 180 193 182 163 149 140 126
349 350 0 346 339 327 327 311 301 231 193 143 129 241 211 201 208 149 207 223 242 256 260 249 272 266 257 255 246 271 258 250 254 254 246 241 252 220 199 189 175 160 159 144 128
348 337 339 358 330 322 318 250 244 254 119 147 114 297 291 258 238 260 205 211 229 229 241 249 242 251 238 256 247 227 246 240 236 229 241 246 245 246 239 189 143 159 159 144 132
349 335 322 322 330 321 315 254 260 50 277 77 252 273 258 309 259 255 257 248 220 288 274 284 269 264 292 323 261 250 225 242 251 252 247 314 260 322 86 138 162 159 158 147 129
351 343 296 277 332 318 280 248 280 24 11 307 293 260 261 185 262 227 254 272 51 330 283 278 263 104 50 345 254 272 264 237 264 265 272 257 225 150 170 155 162 166 160 148 134
347 340 254 308 324 303 264 264 297 357 303 269 271 269 280 259 207 269 255 180 209 268 337 312 275 279 318 316 286 335 315 297 270 262 255 251 244 209 183 182 176 168 162 143 145
354 321 351 321 312 257 251 322 339 134 277 251 275 272 266 278 283 272 280 111 134 262 290 296 261 275 259 275 294 314 326 348 305 192 254 283 272 28 150 176 168 170 140 144 141
350 314 339 338 287 222 288 23 2 269 223 258 262 272 276 277 271 265 263 271 98 293 276 23 295 278 276 305 216 238 236 247 291 338 318 270 307 350 149 281 134 135 154 140 15
326 305 311 345 291 288 70 289 256 273 257 252 249 251 277 265 262 253 263 88 264 261 337 189 255 266 265 182 182 247 247 232 218 274 264 278 320 340 2 22 171 219 173 242 311
320 312 341 328 36 334 336 286 273 235 277 266 267 275 258 251 247 262 230 164 228 242 60 314 263 265 275 303 205 233 224 230 204 225 255 239 287 0 261 205 221 232 215 283 327
317 5 353 307 320 329 294 293 286 277 224 252 264 245 250 249 250 237 248 204 193 166 224 245 258 265 268 282 293 292 273 241 222 236 262 276 260 200 232 260 243 350 339 301 302
325 341 325 289 281 285 273 269 285 284 274 269 248 274 262 254 257 268 243 227 231 182 227 205 264 265 275 276 266 263 268 264 259 248 254 261 264 280 273 281 306 291 254 283 297
333 301 283 291 280 260 279 311 295 315 283 259 288 288 276 273 317 302 320 299 290 259 226 226 252 260 266 292 289 275 265 248 251 245 252 256 269 39 129 254 287 295 296 290 293